Regional Weather Roundup
Issued by NWS Kansas City/Pleasant Hill, MO

Home | Current Version | Previous Version | Text Only | Print | Product List | Glossary On
Versions: 1 2 3 4 5 6 7 8 9 10 11 12 13 14 15 16 17 18 19 20 21 22 23 24 25 26 27
000
ASUS43 KEAX 271110
RWREAX

WEATHER ROUNDUP FOR EASTERN KANSAS AND NORTHWEST MISSOURI
NATIONAL WEATHER SERVICE KANSAS CITY/PLEASANT HILL MO
600 AM CDT THU JUL 27 2017

KSZ040-057-103>105-MOZ028-029-037-043-271200-
...KANSAS CITY METROPOLITAN AREA...

CITY           SKY/WX    TMP DP  RH WIND       PRES   REMARKS
K.C. INTL      CLOUDY    74  73  97 NE5       29.96F
K.C. DOWNTOWN  CLOUDY    75  74  96 E5        29.94S
LEES SUMMIT    LGT RAIN  73  73 100 CALM      29.95S
OLATHE - IXD   CLOUDY    74  73  97 NE6       29.95F
OLATHE - OJC   CLOUDY    72  72 100 NE9       29.95R
LAWRENCE       CLOUDY    75  75 100 NE3       29.94F

$$

MOZ001>008-011>017-020>025-030>033-038>040-044>046-053-054-271200-
...NORTHERN AND CENTRAL MISSOURI...

CITY           SKY/WX    TMP DP  RH WIND       PRES   REMARKS
ST. JOSEPH     CLOUDY    74  74 100 NE7       29.97R
MOSBY          CLOUDY    73  73 100 CALM      29.96S
WARRENSBURG    CLOUDY    72  72 100 S7        29.93S
WHITEMAN AFB   LGT RAIN  73  73 100 S8        29.92F
CLINTON        TSTM      73  73 100 SE8       29.97S
SEDALIA        LGT RAIN  75  75 100 S10       29.96F
WARSAW         NOT AVBL
CHILLICOTHE      N/A     75  75 100 VRB3      29.96S
KIRKSVILLE     CLOUDY    74  73  97 NE5       29.96R

$$

MOZ041-047>049-056>058-063>065-088>090-097-271200-
...EASTERN AND SOUTHERN MISSOURI...

CITY           SKY/WX    TMP DP  RH WIND       PRES   REMARKS
ST. LOUIS INTL LGT RAIN  76  73  91 NE3       29.97R
SPIRIT OF STL  LGT RAIN  76  76 100 SE3       29.94S
COLUMBIA       LGT RAIN  73  72  96 S3        29.96S
JEFFERSON CITY LGT RAIN  74  74 100 CALM      29.95R
ROLLA          LGT RAIN  72  72 100 SW7       29.99F
OSAGE BEACH    RAIN      73  73 100 S7        29.98S
SPRINGFIELD    LGT RAIN  76  73  91 S7        29.99F
BRANSON          N/A     77  68  73 SW3       30.02R
JOPLIN         LGT RAIN  78  77  96 SW5       29.98R
WEST PLAINS    MOCLDY    76  71  85 SW3       30.01F

$$

IAZ060-094-KSZ022-034>040-054-083-096-NEZ052-066-093-271200-
...KANSAS...SOUTHEAST NEBRASKA AND IOWA...

CITY           SKY/WX    TMP DP  RH WIND       PRES   REMARKS
TOPEKA         CLOUDY    75  75 100 N5        29.96R
MANHATTAN      CLOUDY    76  74  93 NE10      29.97S
EMPORIA        CLOUDY    75  74  96 N3        29.95R FOG
CHANUTE        CLOUDY    77  75  93 S3        29.95R
WICHITA        CLOUDY    80  70  71 S13       29.94R
OMAHA          CLEAR     67  64  90 NW7       30.04R
LINCOLN        CLEAR     69  66  90 NE9       30.04R
FALLS CITY     CLEAR     71  70  96 N6        29.99R
LAMONI         CLOUDY    71  70  96 N8        30.00R
DES MOINES     PTCLDY    71  69  93 N8        29.98R

$$





USA.gov is the U.S. government's official web portal to all federal, state and local government web resources and services.